Location: Basse Occidentale du Courleau
(48.3833°N, 4.8333°W)
Time: 09:05:22
(UTC+00:00)

CREW DRAGON DEMO-1 DEB - Pass Details

Date: 05 July 2020
Orbit: 368 x 372 km, 51.6° (Epoch: 07 August)

Event Time Altitude Azimuth Distance (km) Brightness Sun altitude
Exits shadow 23:52:54 52° 85° (E) 467 3.2 -18.6°
Drops below altitude 10° 23:55:21 10° 70° (ENE) 1,371 5.8 -18.7°
Sets 23:57:24 0° 69° (ENE) 2,221 6.9 -18.7°
